Thursday, May 26, 2016
22:24 UTC
  |  Log In   |  Register Free
Airport Search:

Grant Co International Airport
(KMWH)

FAA data valid effective Mar 31 2016 - May 26 2016 (unless otherwise noted).

 
 
 
 
 
 
 
 
 
 
 
 
 
 
Summary: Grant Co International (MWH)

Weather Summary


METAR for KMWH is not available. Closest METAR is for KEPH
KMWH  (most recent observation was updatred at 26:21 UTC)
262152Z 20007G14KT 10SM CLR 22/01 A2996 RMK AO2 SLP142 T02220011

KEPH  (10.0 nm SE)   (most recent observation was updated at 26:21 UTC)
262153Z AUTO 18007KT 10SM CLR 22/02 A2994 RMK AO2 SLP134 T02220022

TAF for KMWH is not available.
KMWH
261737Z 2618/2718 VRB05KT P6SM BKN130 BKN200 FM261900 22011KT P6SM FEW050 BKN120 FM270000 27014G20KT P6SM SCT120 BKN150 FM271200 24009KT P6SM BKN200 FM271600 25013G19KT P6SM SKC

GlobalAir.com is loading additional information.
 Current Weather at MWH
72.0 F° (22.2 C°)
Fair
South winds at 15.0 mph
Pressure:
29.97 in
Humidity:
28%
Wind:
from the South at 15.0 gusting to 21.9 MPH (13 gusting to 19 KT)
Dew Point:
37.0 F° (2.8 C°)
Visibility:
10.00 mi
MWH NOAA Radar

Communications Summary


CTAF118.25
UNICOM122.95
ATIS119.05
WX ASOS
GRANT COUNTY GROUND121.9 [0600-2200]
GRANT COUNTY TOWER118.25 (EAST)
128.0 (WEST) [0600-2200]
GRANT COUNTY APPROACH126.4
134.35
379.95
GRANT COUNTY DEPARTURE126.4
134.35
379.95
CLEARANCE DELIVERYN/A
EMERGENCY121.5
IC126.4
379.95

Terminal Procedures Summary


Airport Diagram

Approaches
More Approaches
Departures
Special Minimums

Closest Alternate Airports with Instrument Procedures

KEPH - Ephrata Municipal - 11.6 nm NW from MWH

WN95 - Brown Boy - 30.4 nm SW from MWH

KEAT - Pangborn Memorial - 43.6 nm NW from MWH

5WA5 - Ross Private Strip - 47.4 nm NW from MWH

KELN - Bowers Field - 58.3 nm SW from MWH

KRLD - Richland - 62.5 nm SE from MWH

KPSC - Tri-Cities - 66 nm SE from MWH

KYKM - Yakima Air Terminal/Mcallister Field - 72.9 nm SW from MWH

WA70 - Frosty Creek - 83.3 nm NE from MWH

82WN - Magee Creek Aerodrome - 83.9 nm NE from MWH

Find All Airport Services Find A Hotel Find A Rental Car Find A Golf Course Find A Restaurant $100 Hamburger



FBO's on the Field
FBO Company Facility Photos Services Transportation Aviation Fuel Prices: Prices include tax
Catering Weather Repair Courtesy Rental Type 100LL JetA JetA+ MOGAS 8087
 
Columbia Pacific Aviation

Currently rated 4.2 by 1 person
FS:Avfuel
Last Updated: Apr-28
Login to update fuel prices
SS:
Contact Columbia Pacific AviationMore FBO Information
 
Million Air Moses Lake

This FBO has not yet been rated
FS:Avfuel
Last Updated: May-24
Login to update fuel prices
SS:
Contact Million Air Moses LakeMore FBO Information
 
Add another FBO Facility Photos Catering Weather Repair Courtesy Rental Type 100LL JetA JetA+ MOGAS 8087
Services Transportation Aviation Fuel Prices: Prices include tax


model-print
model-print
model-print
model-print